QPF
0.00 0.00 0.00 0.01 0.01 0.02 0.02 0.01 0.01 0.02 0.02 0.03 0.02 0.02 0.02 0.01 0.01 0.01 0.01 0.01 0.02 0.02 0.03 0.03 0.02 0.02 0.02 0.02 0.02 0.01 0.01 0.01 0.01 0.01 0.01 0.01 0.01 0.01 0.01 0.02 0.01 0.01 0.02
0.01 0.00 0.00 0.01 0.01 0.01 0.01 0.02 0.02 0.02 0.03 0.03 0.03 0.02 0.02 0.02 0.02 0.02 0.02 0.01 0.02 0.03 0.03 0.03 0.02 0.02 0.01 0.01 0.01 0.01 0.00 0.00 0.01 0.01 0.01 0.01 0.01 0.01 0.02 0.01 0.01 0.02 0.02
0.00 0.00 0.00 0.01 0.01 0.01 0.01 0.01 0.01 0.02 0.02 0.03 0.03 0.03 0.04 0.03 0.03 0.03 0.03 0.02 0.02 0.03 0.02 0.03 0.02 0.02 0.01 0.01 0.01 0.01 0.00 0.00 0.00 0.00 0.01 0.02 0.02 0.02 0.02 0.02 0.02 0.02 0.03
0.00 0.01 0.01 0.01 0.01 0.01 0.01 0.01 0.01 0.01 0.02 0.02 0.02 0.03 0.03 0.03 0.03 0.03 0.02 0.02 0.02 0.02 0.02 0.02 0.02 0.01 0.02 0.01 0.01 0.01 0.01 0.00 0.00 0.00 0.01 0.01 0.01 0.01 0.01 0.02 0.02 0.02 0.02
0.01 0.01 0.00 0.01 0.01 0.01 0.01 0.01 0.01 0.01 0.02 0.02 0.01 0.02 0.02 0.03 0.02 0.03 0.03 0.02 0.02 0.01 0.01 0.01 0.01 0.01 0.01 0.01 0.01 0.01 0.01 0.00 0.00 0.00 0.01 0.01 0.02 0.02 0.02 0.02 0.03 0.03 0.03
0.01 0.01 0.01 0.01 0.01 0.02 0.01 0.01 0.01 0.02 0.02 0.02 0.02 0.02 0.02 0.04 0.04 0.03 0.03 0.02 0.02 0.01 0.01 0.01 0.01 0.01 0.01 0.01 0.01 0.00 0.00 0.00 0.00 0.01 0.01 0.01 0.02 0.01 0.01 0.02 0.02 0.02 0.02
0.01 0.01 0.01 0.01 0.02 0.01 0.01 0.01 0.02 0.02 0.02 0.02 0.02 0.02 0.02 0.03 0.04 0.03 0.02 0.01 0.01 0.02 0.01 0.01 0.01 0.00 0.01 0.01 0.00 0.00 0.00 0.00 0.00 0.01 0.01 0.01 0.01 0.01 0.01 0.01 0.02 0.03 0.03
0.01 0.01 0.01 0.02 0.01 0.01 0.02 0.02 0.02 0.02 0.02 0.02 0.02 0.02 0.02 0.02 0.04 0.04 0.02 0.01 0.01 0.01 0.01 0.01 0.01 0.00 0.00 0.00 0.00 0.00 0.00 0.00 0.00 0.00 0.01 0.01 0.00 0.00 0.01 0.01 0.01 0.01 0.02
0.01 0.02 0.02 0.02 0.02 0.01 0.02 0.03 0.03 0.03 0.02 0.02 0.02 0.02 0.02 0.02 0.03 0.03 0.02 0.01 0.01 0.01 0.00 0.01 0.01 0.00 0.00 0.00 0.00 0.00 0.00 0.00 0.00 0.01 0.01 0.01 0.01 0.01 0.01 0.01 0.01 0.01 0.02
0.02 0.03 0.03 0.02 0.02 0.03 0.03 0.04 0.04 0.03 0.04 0.04 0.03 0.02 0.02 0.02 0.03 0.04 0.03 0.02 0.01 0.01 0.00 0.00 0.01 0.01 0.00 0.00 0.00 0.00 0.00 0.00 0.00 0.01 0.01 0.01 0.01 0.01 0.01 0.00 0.01 0.01 0.01
0.03 0.03 0.03 0.03 0.02 0.02 0.03 0.02 0.04 0.04 0.05 0.05 0.05 0.04 0.04 0.04 0.04 0.03 0.03 0.02 0.02 0.02 0.01 0.00 0.01 0.01 0.00 0.00 0.00 0.00 0.00 0.00 0.00 0.00 0.01 0.01 0.01 0.01 0.01 0.01 0.01 0.01 0.01
0.02 0.03 0.03 0.04 0.03 0.02 0.03 0.04 0.04 0.04 0.04 0.05 0.04 0.04 0.05 0.04 0.03 0.02 0.02 0.02 0.02 0.02 0.01 0.00 0.01 0.01 0.00 0.01 0.01 0.01 0.01 0.01 0.02 0.02 0.02 0.01 0.01 0.01 0.01 0.01 0.02 0.02 0.02
0.02 0.02 0.03 0.04 0.03 0.02 0.03 0.04 0.04 0.04 0.05 0.04 0.03 0.03 0.04 0.04 0.03 0.03 0.02 0.03 0.02 0.01 0.01 0.01 0.01 0.00 0.01 0.01 0.01 0.01 0.01 0.02 0.03 0.03 0.03 0.02 0.01 0.00 0.01 0.01 0.01 0.01 0.02
0.02 0.02 0.03 0.03 0.03 0.03 0.03 0.04 0.05 0.05 0.06 0.06 0.05 0.05 0.05 0.04 0.03 0.02 0.02 0.02 0.02 0.01 0.01 0.00 0.00 0.00 0.00 0.00 0.01 0.01 0.01 0.01 0.02 0.03 0.02 0.01 0.01 0.00 0.01 0.01 0.01 0.02 0.02
0.03 0.03 0.03 0.03 0.03 0.04 0.04 0.04 0.05 0.06 0.05 0.06 0.07 0.07 0.05 0.04 0.04 0.03 0.02 0.01 0.01 0.01 0.01 0.00 0.00 0.00 0.00 0.00 0.00 0.00 0.01 0.01 0.01 0.01 0.01 0.00 0.00 0.01 0.01 0.01 0.02 0.02 0.02
0.03 0.03 0.03 0.04 0.04 0.05 0.05 0.04 0.04 0.05 0.04 0.05 0.06 0.05 0.04 0.04 0.04 0.03 0.02 0.01 0.01 0.01 0.00 0.00 0.00 0.00 0.00 0.00 0.00 0.00 0.01 0.01 0.01 0.01 0.01 0.00 0.00 0.01 0.01 0.01 0.02 0.03 0.03
0.02 0.03 0.03 0.03 0.04 0.05 0.05 0.04 0.04 0.04 0.04 0.05 0.04 0.05 0.04 0.04 0.04 0.04 0.03 0.01 0.01 0.00 0.00 0.00 0.00 0.00 0.00 0.00 0.00 0.00 0.00 0.01 0.01 0.01 0.01 0.00 0.00 0.00 0.01 0.01 0.02 0.02 0.02
0.02 0.03 0.03 0.03 0.04 0.04 0.04 0.04 0.04 0.04 0.03 0.04 0.05 0.04 0.04 0.04 0.04 0.04 0.04 0.03 0.01 0.00 0.00 0.00 0.00 0.00 0.00 0.00 0.00 0.00 0.00 0.00 0.01 0.01 0.01 0.01 0.00 0.00 0.01 0.00 0.01 0.01 0.00
0.02 0.03 0.04 0.04 0.04 0.03 0.03 0.03 0.03 0.04 0.04 0.04 0.04 0.04 0.02 0.02 0.02 0.03 0.03 0.03 0.01 0.01 0.00 0.00 0.00 0.00 0.00 0.00 0.00 0.00 0.00 0.00 0.00 0.00 0.01 0.00 0.00 0.00 0.00 0.00 0.00 0.00 0.00
0.02 0.03 0.03 0.03 0.03 0.03 0.03 0.03 0.03 0.04 0.04 0.04 0.04 0.03 0.02 0.02 0.01 0.01 0.01 0.02 0.01 0.00 0.00 0.00 0.00 0.00 0.00 0.00 0.00 0.00 0.00 0.00 0.00 0.00 0.00 0.00 0.00 0.00 0.00 0.00 0.00 0.00 0.00
0.01 0.02 0.03 0.03 0.03 0.03 0.03 0.03 0.03 0.03 0.03 0.03 0.03 0.02 0.02 0.01 0.01 0.01 0.01 0.01 0.01 0.00 0.00 0.00 0.00 0.00 0.00 0.00 0.00 0.00 0.00 0.00 0.00 0.00 0.00 0.00 0.00 0.00 0.00 0.00 0.00 0.00 0.00
0.02 0.02 0.02 0.02 0.02 0.02 0.02 0.03 0.03 0.04 0.03 0.03 0.03 0.02 0.02 0.02 0.01 0.01 0.00 0.00 0.00 0.00 0.00 0.00 0.00 0.00 0.00 0.00 0.00 0.00 0.00 0.00 0.00 0.00 0.00 0.00 0.00 0.00 0.00 0.00 0.00 0.00 0.00
0.03 0.02 0.02 0.03 0.03 0.03 0.02 0.01 0.02 0.05 0.05 0.03 0.02 0.02 0.02 0.02 0.02 0.01 0.00 0.00 0.00 0.00 0.00 0.00 0.00 0.00 0.00 0.00 0.00 0.00 0.00 0.00 0.00 0.00 0.00 0.00 0.00 0.00 0.00 0.00 0.00 0.00 0.00
0.02 0.02 0.02 0.02 0.03 0.03 0.02 0.01 0.01 0.03 0.05 0.03 0.01 0.01 0.01 0.01 0.02 0.01 0.00 0.00 0.00 0.00 0.00 0.00 0.00 0.00 0.00 0.00 0.00 0.00 0.00 0.00 0.00 0.00 0.00 0.00 0.00 0.00 0.00 0.00 0.00 0.00 0.00
0.00 0.02 0.02 0.02 0.02 0.03 0.02 0.01 0.01 0.02 0.04 0.03 0.02 0.01 0.01 0.01 0.01 0.01 0.01 0.00 0.00 0.00 0.00 0.00 0.00 0.00 0.00 0.00 0.00 0.00 0.00 0.00 0.00 0.00 0.00 0.00 0.00 0.00 0.00 0.00 0.00 0.00 0.00
0.00 0.00 0.02 0.02 0.02 0.02 0.02 0.02 0.01 0.01 0.02 0.03 0.02 0.01 0.01 0.01 0.00 0.00 0.00 0.00 0.00 0.00 0.00 0.00 0.00 0.00 0.00 0.00 0.00 0.00 0.00 0.00 0.00 0.00 0.00 0.00 0.00 0.00 0.00 0.00 0.00 0.00 0.00
MSLP
1022.20 1022.02 1021.82 1021.65 1021.58 1021.57 1021.61 1021.60 1021.51 1021.29 1020.96 1020.54 1020.11 1019.73 1019.45 1019.28 1019.20 1019.17 1019.13 1019.05 1018.90 1018.67 1018.39 1018.10 1017.84 1017.63 1017.49 1017.40 1017.33 1017.26 1017.16 1017.01 1016.81 1016.58 1016.32 1016.06 1015.80 1015.56 1015.31 1015.08 1014.84 1014.61 1014.40
1022.24 1022.09 1021.93 1021.82 1021.79 1021.81 1021.85 1021.82 1021.70 1021.45 1021.09 1020.67 1020.25 1019.90 1019.65 1019.51 1019.45 1019.44 1019.42 1019.34 1019.19 1018.97 1018.71 1018.44 1018.19 1018.00 1017.85 1017.75 1017.65 1017.55 1017.41 1017.24 1017.02 1016.79 1016.54 1016.30 1016.06 1015.83 1015.59 1015.33 1015.07 1014.81 1014.57
1022.37 1022.23 1022.10 1022.03 1022.02 1022.05 1022.08 1022.04 1021.90 1021.64 1021.29 1020.89 1020.51 1020.20 1019.98 1019.86 1019.82 1019.79 1019.75 1019.65 1019.47 1019.24 1018.98 1018.71 1018.48 1018.30 1018.15 1018.04 1017.93 1017.79 1017.63 1017.43 1017.21 1016.98 1016.75 1016.53 1016.31 1016.09 1015.85 1015.58 1015.30 1015.01 1014.73
1022.54 1022.41 1022.29 1022.24 1022.24 1022.28 1022.30 1022.25 1022.10 1021.86 1021.53 1021.18 1020.85 1020.58 1020.40 1020.30 1020.23 1020.18 1020.08 1019.93 1019.72 1019.46 1019.18 1018.92 1018.70 1018.53 1018.40 1018.28 1018.15 1018.00 1017.82 1017.61 1017.39 1017.17 1016.96 1016.75 1016.55 1016.33 1016.09 1015.81 1015.50 1015.18 1014.88
1022.69 1022.57 1022.47 1022.43 1022.44 1022.47 1022.48 1022.43 1022.29 1022.06 1021.78 1021.48 1021.21 1020.99 1020.84 1020.73 1020.65 1020.54 1020.38 1020.17 1019.91 1019.61 1019.33 1019.08 1018.87 1018.72 1018.59 1018.48 1018.35 1018.19 1017.99 1017.78 1017.56 1017.35 1017.15 1016.97 1016.77 1016.55 1016.29 1016.00 1015.67 1015.32 1014.99
1022.79 1022.68 1022.61 1022.59 1022.61 1022.64 1022.64 1022.58 1022.44 1022.24 1021.99 1021.74 1021.52 1021.35 1021.22 1021.11 1020.99 1020.84 1020.62 1020.35 1020.04 1019.72 1019.43 1019.19 1019.00 1018.87 1018.76 1018.65 1018.51 1018.35 1018.15 1017.94 1017.72 1017.52 1017.33 1017.15 1016.96 1016.73 1016.46 1016.14 1015.79 1015.43 1015.08
1022.84 1022.76 1022.72 1022.73 1022.76 1022.79 1022.77 1022.70 1022.56 1022.37 1022.15 1021.94 1021.76 1021.62 1021.51 1021.40 1021.25 1021.05 1020.79 1020.48 1020.14 1019.81 1019.52 1019.29 1019.12 1019.00 1018.90 1018.79 1018.65 1018.48 1018.28 1018.06 1017.85 1017.66 1017.48 1017.30 1017.11 1016.88 1016.59 1016.25 1015.88 1015.50 1015.15
1022.84 1022.81 1022.81 1022.86 1022.91 1022.94 1022.91 1022.82 1022.66 1022.47 1022.26 1022.07 1021.92 1021.80 1021.69 1021.58 1021.42 1021.19 1020.91 1020.57 1020.22 1019.89 1019.61 1019.40 1019.25 1019.13 1019.03 1018.91 1018.76 1018.57 1018.36 1018.13 1017.93 1017.74 1017.57 1017.40 1017.21 1016.97 1016.67 1016.32 1015.93 1015.55 1015.19
1022.83 1022.86 1022.92 1023.01 1023.08 1023.11 1023.07 1022.95 1022.77 1022.56 1022.35 1022.16 1022.02 1021.91 1021.81 1021.69 1021.52 1021.29 1020.99 1020.66 1020.31 1020.00 1019.74 1019.53 1019.39 1019.27 1019.15 1019.01 1018.82 1018.61 1018.37 1018.14 1017.93 1017.75 1017.60 1017.44 1017.26 1017.02 1016.72 1016.36 1015.97 1015.58 1015.23
1022.84 1022.93 1023.05 1023.18 1023.28 1023.31 1023.25 1023.12 1022.91 1022.68 1022.45 1022.25 1022.11 1021.99 1021.89 1021.77 1021.60 1021.37 1021.08 1020.76 1020.44 1020.14 1019.89 1019.70 1019.54 1019.41 1019.25 1019.07 1018.85 1018.59 1018.33 1018.08 1017.87 1017.70 1017.56 1017.42 1017.25 1017.03 1016.74 1016.38 1015.99 1015.60 1015.25
1022.88 1023.03 1023.21 1023.38 1023.50 1023.53 1023.46 1023.31 1023.08 1022.83 1022.58 1022.38 1022.22 1022.10 1021.99 1021.86 1021.69 1021.47 1021.19 1020.89 1020.59 1020.31 1020.07 1019.88 1019.71 1019.54 1019.34 1019.11 1018.83 1018.53 1018.24 1017.97 1017.76 1017.59 1017.47 1017.35 1017.21 1017.01 1016.73 1016.39 1016.00 1015.61 1015.25
1022.95 1023.15 1023.37 1023.57 1023.70 1023.74 1023.67 1023.50 1023.27 1023.01 1022.76 1022.54 1022.38 1022.25 1022.13 1022.00 1021.82 1021.60 1021.34 1021.05 1020.76 1020.50 1020.27 1020.06 1019.87 1019.66 1019.42 1019.13 1018.80 1018.46 1018.13 1017.84 1017.62 1017.46 1017.35 1017.26 1017.13 1016.96 1016.70 1016.37 1015.99 1015.60 1015.23
1023.05 1023.28 1023.52 1023.72 1023.86 1023.90 1023.84 1023.68 1023.45 1023.20 1022.96 1022.75 1022.58 1022.45 1022.32 1022.18 1022.00 1021.77 1021.51 1021.23 1020.95 1020.69 1020.46 1020.24 1020.02 1019.78 1019.49 1019.16 1018.78 1018.39 1018.03 1017.72 1017.48 1017.33 1017.22 1017.14 1017.04 1016.89 1016.65 1016.34 1015.96 1015.57 1015.18
1023.16 1023.39 1023.62 1023.82 1023.95 1024.00 1023.94 1023.80 1023.60 1023.37 1023.16 1022.97 1022.81 1022.68 1022.54 1022.39 1022.20 1021.97 1021.70 1021.42 1021.14 1020.88 1020.64 1020.41 1020.17 1019.89 1019.57 1019.20 1018.79 1018.37 1017.97 1017.64 1017.39 1017.22 1017.11 1017.03 1016.94 1016.80 1016.58 1016.28 1015.90 1015.50 1015.11
1023.25 1023.47 1023.68 1023.85 1023.97 1024.01 1023.96 1023.85 1023.69 1023.50 1023.33 1023.17 1023.04 1022.91 1022.78 1022.61 1022.41 1022.17 1021.89 1021.60 1021.32 1021.06 1020.81 1020.57 1020.31 1020.02 1019.68 1019.28 1018.85 1018.41 1017.98 1017.62 1017.34 1017.15 1017.03 1016.93 1016.84 1016.69 1016.48 1016.18 1015.82 1015.41 1015.00
1023.32 1023.51 1023.69 1023.83 1023.92 1023.95 1023.92 1023.83 1023.72 1023.58 1023.46 1023.34 1023.24 1023.13 1022.99 1022.83 1022.62 1022.36 1022.08 1021.79 1021.50 1021.23 1020.98 1020.73 1020.47 1020.17 1019.82 1019.42 1018.97 1018.51 1018.07 1017.68 1017.37 1017.13 1016.97 1016.85 1016.73 1016.57 1016.36 1016.06 1015.70 1015.29 1014.87
1023.36 1023.53 1023.67 1023.78 1023.85 1023.87 1023.84 1023.78 1023.70 1023.62 1023.54 1023.46 1023.39 1023.30 1023.17 1023.01 1022.80 1022.55 1022.27 1021.97 1021.68 1021.41 1021.16 1020.92 1020.66 1020.36 1020.02 1019.61 1019.17 1018.70 1018.23 1017.81 1017.45 1017.17 1016.96 1016.79 1016.63 1016.45 1016.22 1015.92 1015.56 1015.16 1014.73
1023.37 1023.53 1023.65 1023.73 1023.78 1023.79 1023.77 1023.73 1023.68 1023.63 1023.59 1023.54 1023.49 1023.42 1023.32 1023.17 1022.97 1022.72 1022.45 1022.17 1021.89 1021.62 1021.37 1021.13 1020.88 1020.59 1020.26 1019.86 1019.42 1018.95 1018.47 1018.01 1017.61 1017.27 1017.00 1016.77 1016.55 1016.33 1016.08 1015.78 1015.42 1015.02 1014.60
1023.33 1023.50 1023.63 1023.70 1023.74 1023.74 1023.73 1023.70 1023.67 1023.65 1023.62 1023.60 1023.57 1023.52 1023.43 1023.29 1023.11 1022.89 1022.64 1022.37 1022.11 1021.86 1021.62 1021.38 1021.14 1020.86 1020.54 1020.16 1019.73 1019.26 1018.77 1018.29 1017.84 1017.44 1017.09 1016.79 1016.52 1016.25 1015.97 1015.65 1015.30 1014.90 1014.49
1023.22 1023.45 1023.60 1023.69 1023.73 1023.74 1023.73 1023.71 1023.69 1023.67 1023.66 1023.65 1023.62 1023.58 1023.51 1023.39 1023.24 1023.04 1022.82 1022.58 1022.34 1022.10 1021.88 1021.65 1021.41 1021.15 1020.85 1020.49 1020.08 1019.62 1019.12 1018.62 1018.13 1017.68 1017.26 1016.89 1016.55 1016.23 1015.90 1015.57 1015.21 1014.82 1014.40
1023.04 1023.33 1023.54 1023.66 1023.73 1023.75 1023.75 1023.74 1023.72 1023.71 1023.69 1023.68 1023.66 1023.62 1023.56 1023.47 1023.34 1023.18 1022.99 1022.78 1022.56 1022.34 1022.13 1021.91 1021.69 1021.45 1021.16 1020.83 1020.45 1020.01 1019.53 1019.02 1018.50 1018.00 1017.52 1017.07 1016.66 1016.28 1015.91 1015.54 1015.16 1014.77 1014.35
1022.78 1023.16 1023.43 1023.60 1023.70 1023.75 1023.77 1023.77 1023.76 1023.74 1023.73 1023.71 1023.68 1023.65 1023.59 1023.52 1023.41 1023.28 1023.12 1022.94 1022.75 1022.54 1022.34 1022.14 1021.93 1021.71 1021.46 1021.17 1020.83 1020.42 1019.97 1019.47 1018.94 1018.40 1017.86 1017.35 1016.87 1016.41 1015.98 1015.57 1015.17 1014.76 1014.33
1022.45 1022.91 1023.25 1023.47 1023.62 1023.70 1023.75 1023.76 1023.77 1023.76 1023.74 1023.72 1023.69 1023.65 1023.60 1023.54 1023.45 1023.33 1023.20 1023.04 1022.86 1022.68 1022.49 1022.31 1022.12 1021.93 1021.72 1021.48 1021.19 1020.84 1020.43 1019.95 1019.43 1018.87 1018.29 1017.71 1017.16 1016.63 1016.13 1015.66 1015.21 1014.77 1014.33
1022.09 1022.61 1023.00 1023.27 1023.45 1023.57 1023.64 1023.69 1023.71 1023.72 1023.72 1023.70 1023.67 1023.64 1023.59 1023.53 1023.44 1023.34 1023.21 1023.06 1022.90 1022.73 1022.56 1022.39 1022.23 1022.07 1021.91 1021.73 1021.50 1021.22 1020.87 1020.44 1019.93 1019.36 1018.75 1018.13 1017.50 1016.90 1016.33 1015.79 1015.29 1014.80 1014.33
1021.74 1022.29 1022.70 1022.99 1023.20 1023.35 1023.46 1023.54 1023.60 1023.64 1023.66 1023.65 1023.64 1023.60 1023.55 1023.49 1023.40 1023.30 1023.17 1023.03 1022.87 1022.70 1022.54 1022.39 1022.26 1022.14 1022.03 1021.91 1021.75 1021.54 1021.25 1020.87 1020.40 1019.84 1019.21 1018.54 1017.85 1017.18 1016.53 1015.92 1015.36 1014.83 1014.32
1021.44 1021.99 1022.39 1022.68 1022.89 1023.06 1023.20 1023.32 1023.42 1023.50 1023.56 1023.59 1023.59 1023.56 1023.51 1023.44 1023.34 1023.23 1023.09 1022.94 1022.78 1022.61 1022.46 1022.33 1022.22 1022.13 1022.07 1022.00 1021.91 1021.76 1021.54 1021.21 1020.78 1020.24 1019.61 1018.91 1018.17 1017.43 1016.71 1016.03 1015.41 1014.82 1014.27
Thickness
5767 5766 5764 5762 5761 5760 5759 5758 5756 5755 5754 5752 5751 5750 5749 5748 5747 5745 5745 5744 5743 5742 5742 5741 5740 5739 5739 5738 5737 5737 5736 5735 5735 5734 5733 5733 5732 5731 5730 5730 5729 5728 5728
5768 5764 5761 5759 5758 5756 5755 5754 5753 5752 5751 5749 5748 5747 5746 5744 5743 5742 5741 5740 5740 5739 5738 5737 5737 5736 5735 5735 5734 5733 5732 5732 5731 5731 5730 5729 5729 5728 5727 5726 5725 5724 5724
5764 5761 5757 5755 5754 5752 5751 5750 5749 5748 5747 5746 5744 5743 5742 5741 5740 5739 5738 5737 5736 5735 5734 5733 5733 5732 5731 5731 5730 5729 5728 5728 5727 5727 5727 5726 5725 5725 5724 5722 5721 5721 5720
5759 5756 5753 5751 5750 5748 5747 5746 5745 5744 5743 5742 5740 5739 5738 5737 5736 5735 5734 5733 5732 5731 5730 5729 5729 5728 5727 5726 5726 5725 5724 5724 5724 5724 5723 5722 5722 5721 5720 5718 5717 5717 5716
5753 5750 5748 5746 5745 5744 5742 5741 5740 5739 5738 5737 5736 5735 5734 5733 5732 5731 5730 5729 5728 5727 5726 5725 5724 5724 5723 5722 5721 5721 5720 5720 5720 5719 5719 5718 5717 5716 5715 5714 5713 5712 5711
5746 5744 5742 5741 5739 5738 5737 5736 5735 5734 5733 5732 5731 5730 5729 5728 5727 5726 5725 5724 5723 5722 5722 5721 5720 5719 5718 5718 5717 5716 5716 5716 5715 5715 5715 5713 5712 5711 5710 5709 5708 5708 5707
5740 5738 5736 5735 5734 5733 5732 5731 5730 5729 5728 5727 5726 5725 5724 5723 5722 5721 5720 5719 5718 5718 5717 5716 5715 5714 5714 5713 5713 5712 5712 5711 5711 5711 5710 5708 5707 5706 5705 5704 5703 5703 5702
5733 5731 5729 5728 5728 5727 5726 5725 5724 5723 5722 5721 5720 5720 5719 5718 5717 5716 5715 5714 5713 5712 5712 5711 5710 5709 5709 5708 5708 5708 5707 5707 5707 5706 5705 5703 5703 5702 5700 5699 5698 5698 5697
5726 5724 5722 5721 5721 5720 5720 5719 5718 5717 5717 5716 5715 5714 5713 5713 5712 5711 5709 5708 5707 5707 5706 5706 5705 5704 5704 5703 5703 5703 5703 5702 5702 5701 5700 5698 5698 5697 5695 5694 5693 5692 5691
5717 5717 5716 5715 5715 5714 5713 5713 5712 5711 5711 5710 5709 5708 5708 5707 5706 5704 5703 5702 5701 5701 5701 5700 5700 5700 5699 5699 5698 5698 5698 5698 5697 5696 5694 5693 5692 5691 5690 5689 5687 5686 5686
5708 5709 5710 5710 5709 5708 5707 5706 5706 5705 5705 5704 5703 5702 5702 5701 5700 5698 5697 5696 5696 5695 5695 5695 5695 5695 5694 5694 5694 5693 5693 5692 5691 5690 5688 5688 5687 5686 5685 5683 5682 5681 5680
5697 5700 5702 5703 5703 5702 5701 5700 5700 5699 5699 5698 5698 5697 5696 5695 5694 5692 5692 5691 5690 5690 5689 5689 5690 5689 5689 5689 5688 5688 5687 5687 5686 5684 5682 5682 5681 5680 5679 5678 5676 5675 5674
5691 5692 5694 5695 5696 5696 5695 5695 5694 5694 5693 5692 5692 5691 5690 5689 5687 5686 5685 5685 5684 5684 5684 5684 5684 5684 5683 5683 5683 5682 5682 5681 5680 5678 5676 5675 5674 5674 5673 5671 5670 5669 5668
5683 5685 5686 5687 5688 5689 5689 5689 5688 5687 5687 5686 5685 5685 5684 5683 5681 5681 5680 5679 5679 5678 5678 5678 5678 5677 5677 5677 5676 5676 5675 5675 5673 5672 5670 5668 5667 5667 5666 5664 5664 5663 5662
5676 5677 5678 5680 5681 5682 5682 5682 5681 5681 5680 5679 5679 5678 5678 5677 5675 5674 5673 5673 5672 5672 5671 5671 5671 5671 5670 5670 5669 5669 5668 5667 5666 5665 5663 5662 5660 5659 5658 5657 5657 5656 5654
5669 5671 5672 5672 5673 5674 5674 5674 5674 5674 5673 5673 5672 5671 5671 5670 5669 5668 5667 5666 5665 5665 5665 5665 5664 5664 5663 5662 5662 5661 5661 5660 5659 5658 5656 5654 5653 5652 5650 5650 5649 5648 5647
5663 5664 5665 5665 5665 5666 5667 5667 5666 5666 5666 5665 5665 5664 5663 5662 5662 5661 5659 5658 5657 5658 5658 5657 5657 5656 5655 5655 5654 5653 5653 5652 5651 5650 5649 5647 5645 5644 5642 5641 5640 5639 5639
5656 5656 5657 5658 5658 5659 5659 5659 5659 5658 5658 5658 5657 5656 5655 5655 5654 5653 5652 5651 5650 5650 5650 5650 5649 5648 5647 5646 5645 5645 5645 5644 5644 5642 5641 5639 5638 5636 5634 5633 5632 5631 5630
5648 5649 5649 5650 5651 5651 5651 5651 5651 5650 5650 5650 5649 5648 5648 5647 5647 5646 5645 5644 5643 5643 5642 5642 5640 5639 5638 5637 5637 5637 5637 5636 5636 5635 5633 5631 5630 5628 5626 5625 5623 5622 5621
5640 5641 5642 5642 5643 5643 5643 5642 5642 5641 5642 5642 5641 5640 5640 5640 5639 5638 5637 5636 5636 5635 5634 5633 5632 5631 5630 5629 5630 5629 5629 5629 5628 5626 5625 5623 5622 5620 5618 5616 5615 5613 5612
5630 5632 5634 5634 5635 5636 5635 5633 5633 5632 5633 5634 5633 5633 5632 5632 5632 5631 5630 5629 5628 5627 5626 5626 5624 5623 5621 5621 5620 5619 5620 5621 5620 5618 5617 5615 5613 5612 5610 5608 5607 5605 5603
5621 5623 5624 5626 5627 5629 5628 5628 5627 5626 5626 5626 5626 5625 5625 5625 5625 5624 5623 5622 5621 5620 5619 5618 5616 5614 5613 5612 5610 5609 5607 5608 5610 5610 5608 5606 5605 5603 5601 5600 5598 5597 5595
5612 5614 5617 5618 5620 5621 5621 5621 5620 5618 5617 5617 5617 5617 5618 5618 5617 5617 5616 5615 5614 5613 5611 5610 5608 5606 5603 5603 5602 5599 5596 5595 5596 5599 5599 5598 5596 5594 5593 5592 5590 5588 5586
5604 5606 5608 5610 5611 5613 5614 5614 5613 5612 5611 5611 5611 5610 5611 5611 5610 5610 5609 5608 5606 5605 5603 5602 5601 5599 5597 5594 5593 5592 5590 5588 5584 5585 5588 5588 5587 5585 5584 5583 5581 5579 5577
5596 5597 5600 5602 5604 5605 5606 5607 5607 5606 5606 5605 5604 5604 5603 5603 5603 5603 5602 5600 5599 5598 5596 5595 5593 5592 5590 5587 5585 5583 5582 5580 5578 5574 5575 5577 5577 5576 5574 5573 5571 5569 5567
5587 5589 5591 5594 5595 5597 5598 5599 5600 5600 5599 5598 5597 5597 5596 5596 5596 5595 5595 5593 5592 5590 5589 5588 5586 5585 5583 5581 5578 5575 5573 5570 5568 5566 5565 5566 5566 5567 5566 5564 5562 5559 5556